FFL59 KJKA-KABY

Flight info

Callsign FFL59
Flight time 0h 43m
Altitude 27000
Route PENSI CEW
Aircraft HDJT/L-SABDGRWY/H

Departure

Time 2026-04-18 18:24
Airport Jack Edwards National Airport (KJKA)

Arrival

Time 2026-04-18 19:07
Airport Southwest Georgia Regional Airport (KABY)
Time Latitude Longitude Altitude Speed Heading
2026-04-18 18:07 30.28705 -87.67877 18 ft 0 kts 90°
2026-04-18 18:19 30.28708 -87.67856 17 ft 6 kts 61°
2026-04-18 18:19 30.28758 -87.67836 18 ft 9 kts
2026-04-18 18:20 30.28814 -87.67835 18 ft 7 kts 350°
2026-04-18 18:20 30.28861 -87.67847 18 ft 8 kts 347°
2026-04-18 18:20 30.28905 -87.67859 19 ft 5 kts 344°
2026-04-18 18:20 30.28919 -87.67906 19 ft 10 kts 270°
2026-04-18 18:21 30.28919 -87.67988 19 ft 9 kts 270°
2026-04-18 18:21 30.28966 -87.68021 19 ft 12 kts
2026-04-18 18:21 30.29079 -87.68018 20 ft 17 kts 356°
2026-04-18 18:21 30.29183 -87.67972 19 ft 18 kts 43°
2026-04-18 18:22 30.29267 -87.67882 20 ft 15 kts 42°
2026-04-18 18:22 30.29313 -87.67812 21 ft 7 kts 74°
2026-04-18 18:22 30.29315 -87.67798 21 ft 0 kts 82°
2026-04-18 18:23 30.29317 -87.67740 22 ft 10 kts 106°
2026-04-18 18:23 30.29298 -87.67721 23 ft 0 kts 176°
2026-04-18 18:23 30.28995 -87.67691 20 ft 85 kts 175°
2026-04-18 18:24 30.28201 -87.67621 237 ft 129 kts 176°
2026-04-18 18:24 30.27340 -87.67290 995 ft 135 kts 148°
2026-04-18 18:24 30.26773 -87.66363 1383 ft 156 kts 102°
2026-04-18 18:24 30.26836 -87.65111 1992 ft 158 kts 86°
2026-04-18 18:25 30.26919 -87.63828 2535 ft 161 kts 86°
2026-04-18 18:25 30.27067 -87.62525 3043 ft 179 kts 65°
2026-04-18 18:25 30.27928 -87.61414 3583 ft 199 kts 30°
2026-04-18 18:25 30.29203 -87.60616 4267 ft 218 kts 26°
2026-04-18 18:26 30.30610 -87.59720 4792 ft 244 kts 27°
2026-04-18 18:26 30.32163 -87.58688 5188 ft 271 kts 28°
2026-04-18 18:26 30.33828 -87.57579 5959 ft 279 kts 28°
2026-04-18 18:26 30.35543 -87.56449 6653 ft 289 kts 27°
2026-04-18 18:27 30.37278 -87.55312 7409 ft 292 kts 28°
2026-04-18 18:27 30.39048 -87.54140 8200 ft 295 kts 28°
2026-04-18 18:27 30.40839 -87.52947 8990 ft 299 kts 28°
2026-04-18 18:27 30.42655 -87.51746 9760 ft 303 kts 28°
2026-04-18 18:28 30.44508 -87.50528 10270 ft 314 kts 28°
2026-04-18 18:28 30.46434 -87.49247 10804 ft 321 kts 29°
2026-04-18 18:28 30.48371 -87.47958 11447 ft 322 kts 28°
2026-04-18 18:28 30.50298 -87.46694 12041 ft 325 kts 29°
2026-04-18 18:29 30.52281 -87.45375 12642 ft 329 kts 29°
2026-04-18 18:29 30.54272 -87.44050 13240 ft 331 kts 29°
2026-04-18 18:29 30.56281 -87.42717 13821 ft 334 kts 29°
2026-04-18 18:29 30.58310 -87.41376 14328 ft 337 kts 29°
2026-04-18 18:30 30.60354 -87.40013 14815 ft 340 kts 29°
2026-04-18 18:30 30.62419 -87.38641 15295 ft 344 kts 29°
2026-04-18 18:30 30.64504 -87.37256 15775 ft 347 kts 29°
2026-04-18 18:30 30.66603 -87.35858 16242 ft 349 kts 29°
2026-04-18 18:31 30.68722 -87.34444 16705 ft 352 kts 28°
2026-04-18 18:31 30.70859 -87.33025 17157 ft 355 kts 28°
2026-04-18 18:31 30.72985 -87.31607 17587 ft 358 kts 29°
2026-04-18 18:31 30.75118 -87.30090 18002 ft 362 kts 36°
2026-04-18 18:32 30.76941 -87.28055 18413 ft 365 kts 49°
2026-04-18 18:32 30.78381 -87.25611 18752 ft 368 kts 63°
2026-04-18 18:32 30.79336 -87.22848 19090 ft 370 kts 75°
2026-04-18 18:32 30.79758 -87.19893 19433 ft 371 kts 88°
2026-04-18 18:33 30.79899 -87.16882 19762 ft 375 kts 88°
2026-04-18 18:33 30.80091 -87.13849 20094 ft 378 kts 87°
2026-04-18 18:33 30.80285 -87.10833 20397 ft 381 kts 88°
2026-04-18 18:33 30.80444 -87.07745 20701 ft 383 kts 88°
2026-04-18 18:34 30.80602 -87.04636 20994 ft 386 kts 88°
2026-04-18 18:34 30.80787 -87.01509 21289 ft 389 kts 87°
2026-04-18 18:34 30.80977 -86.98361 21579 ft 392 kts 88°
2026-04-18 18:34 30.81143 -86.95186 21864 ft 394 kts 88°
2026-04-18 18:35 30.81310 -86.91992 22133 ft 397 kts 88°
2026-04-18 18:35 30.81495 -86.88778 22405 ft 400 kts 87°
2026-04-18 18:35 30.81674 -86.85541 22696 ft 402 kts 88°
2026-04-18 18:35 30.81844 -86.82281 22972 ft 405 kts 88°
2026-04-18 18:36 30.82020 -86.79005 23237 ft 407 kts 88°
2026-04-18 18:36 30.82203 -86.75751 23502 ft 410 kts 88°
2026-04-18 18:36 30.82380 -86.72438 23739 ft 412 kts 88°
2026-04-18 18:36 30.82577 -86.69105 23944 ft 414 kts 84°
2026-04-18 18:37 30.83229 -86.65837 24162 ft 416 kts 71°
2026-04-18 18:37 30.84198 -86.62668 24468 ft 415 kts 70°
2026-04-18 18:37 30.85131 -86.59499 24807 ft 413 kts 71°
2026-04-18 18:37 30.86041 -86.56332 25150 ft 412 kts 71°
2026-04-18 18:38 30.86980 -86.53182 25490 ft 412 kts 70°
2026-04-18 18:38 30.87926 -86.50045 25837 ft 411 kts 70°
2026-04-18 18:38 30.88852 -86.46891 26186 ft 411 kts 70°
2026-04-18 18:38 30.89757 -86.43784 26536 ft 411 kts 70°
2026-04-18 18:39 30.90689 -86.40640 26890 ft 411 kts 70°
2026-04-18 18:39 30.91625 -86.37485 27107 ft 416 kts 70°
2026-04-18 18:39 30.92572 -86.34261 27106 ft 426 kts 70°
2026-04-18 18:39 30.93536 -86.30959 27112 ft 434 kts 70°
2026-04-18 18:40 30.94524 -86.27601 27115 ft 441 kts 70°
2026-04-18 18:40 30.95523 -86.24207 27108 ft 447 kts 70°
2026-04-18 18:40 30.96530 -86.20762 27099 ft 451 kts 70°
2026-04-18 18:40 30.97531 -86.17335 27098 ft 455 kts 70°
2026-04-18 18:41 30.98557 -86.13838 27087 ft 458 kts 70°
2026-04-18 18:41 30.99583 -86.10315 27083 ft 459 kts 70°
2026-04-18 18:41 31.00607 -86.06794 27082 ft 458 kts 70°
2026-04-18 18:41 31.01636 -86.03267 26731 ft 462 kts 70°
2026-04-18 18:42 31.02666 -85.99738 26049 ft 456 kts 70°
2026-04-18 18:42 31.03667 -85.96276 25325 ft 445 kts 71°
2026-04-18 18:42 31.04645 -85.92900 24621 ft 435 kts 71°
2026-04-18 18:42 31.05594 -85.89639 24161 ft 426 kts 71°
2026-04-18 18:43 31.07480 -85.83115 23429 ft 424 kts 71°
2026-04-18 18:43 31.08420 -85.79864 22998 ft 421 kts 71°
2026-04-18 18:43 31.09352 -85.76644 22567 ft 417 kts 71°
2026-04-18 18:44 31.10272 -85.73452 22138 ft 413 kts 71°
2026-04-18 18:44 31.11181 -85.70292 21737 ft 409 kts 71°
2026-04-18 18:44 31.12082 -85.67162 21317 ft 405 kts 71°
2026-04-18 18:44 31.12963 -85.64102 20908 ft 401 kts 71°
2026-04-18 18:45 31.13849 -85.61027 20500 ft 398 kts 71°
2026-04-18 18:45 31.14723 -85.57979 20096 ft 394 kts 72°
2026-04-18 18:45 31.15586 -85.54959 19698 ft 391 kts 72°
2026-04-18 18:45 31.16443 -85.51964 19342 ft 387 kts 72°
2026-04-18 18:46 31.17295 -85.48998 18960 ft 384 kts 72°
2026-04-18 18:46 31.18136 -85.46052 18588 ft 381 kts 72°
2026-04-18 18:46 31.18968 -85.43131 18165 ft 377 kts 72°
2026-04-18 18:46 31.19795 -85.40235 17732 ft 374 kts 72°
2026-04-18 18:47 31.20603 -85.37402 17305 ft 371 kts 72°
2026-04-18 18:47 31.21415 -85.34553 16881 ft 368 kts 72°
2026-04-18 18:47 31.22217 -85.31729 16457 ft 365 kts 72°
2026-04-18 18:47 31.23014 -85.28930 16044 ft 361 kts 72°
2026-04-18 18:48 31.23802 -85.26153 15634 ft 359 kts 72°
2026-04-18 18:48 31.24581 -85.23399 15231 ft 356 kts 72°
2026-04-18 18:48 31.25359 -85.20663 14830 ft 354 kts 72°
2026-04-18 18:48 31.26131 -85.17944 14437 ft 351 kts 72°
2026-04-18 18:49 31.26881 -85.15276 14053 ft 349 kts 72°
2026-04-18 18:49 31.27641 -85.12593 13618 ft 347 kts 72°
2026-04-18 18:49 31.28395 -85.09925 13185 ft 345 kts 72°
2026-04-18 18:49 31.29240 -85.07318 12738 ft 343 kts 62°
2026-04-18 18:50 31.30636 -85.05078 12318 ft 340 kts 48°
2026-04-18 18:50 31.32252 -85.03065 11911 ft 339 kts 45°
2026-04-18 18:50 31.33875 -85.01120 11499 ft 324 kts 45°
2026-04-18 18:50 31.35423 -84.99277 11087 ft 314 kts 45°
2026-04-18 18:51 31.36949 -84.97471 10717 ft 311 kts 45°
2026-04-18 18:51 31.38467 -84.95681 10366 ft 309 kts 45°
2026-04-18 18:51 31.39976 -84.93902 10023 ft 307 kts 45°
2026-04-18 18:51 31.41480 -84.92132 9649 ft 306 kts 45°
2026-04-18 18:52 31.42960 -84.90392 9275 ft 305 kts 45°
2026-04-18 18:52 31.44456 -84.88640 8906 ft 303 kts 45°
2026-04-18 18:52 31.45939 -84.86897 8535 ft 301 kts 45°
2026-04-18 18:52 31.47416 -84.85167 8172 ft 300 kts 45°
2026-04-18 18:53 31.48891 -84.83446 7809 ft 298 kts 45°
2026-04-18 18:53 31.50322 -84.81779 7448 ft 286 kts 45°
2026-04-18 18:53 31.51734 -84.80148 7089 ft 285 kts 45°
2026-04-18 18:53 31.53139 -84.78530 6743 ft 282 kts 45°
2026-04-18 18:54 31.54539 -84.76922 6387 ft 282 kts 45°
2026-04-18 18:54 31.55918 -84.75338 6020 ft 280 kts 44°
2026-04-18 18:54 31.57314 -84.73747 5646 ft 277 kts 45°
2026-04-18 18:54 31.58653 -84.72207 5302 ft 266 kts 45°
2026-04-18 18:55 31.59964 -84.70682 5086 ft 266 kts 45°
2026-04-18 18:55 31.61279 -84.69162 4901 ft 266 kts 45°
2026-04-18 18:55 31.62594 -84.67646 4694 ft 258 kts 45°
2026-04-18 18:55 31.63858 -84.66191 4486 ft 252 kts 44°
2026-04-18 18:56 31.65102 -84.64746 4286 ft 251 kts 45°
2026-04-18 18:56 31.66342 -84.63297 4084 ft 252 kts 45°
2026-04-18 18:56 31.67577 -84.61854 3886 ft 251 kts 45°
2026-04-18 18:56 31.68810 -84.60400 3692 ft 248 kts 45°
2026-04-18 18:57 31.69976 -84.59019 3498 ft 237 kts 45°
2026-04-18 18:57 31.71142 -84.57651 3295 ft 236 kts 44°
2026-04-18 18:57 31.72303 -84.56286 3089 ft 237 kts 45°
2026-04-18 18:57 31.73376 -84.54859 3012 ft 233 kts 58°
2026-04-18 18:58 31.73947 -84.53136 2889 ft 223 kts 81°
2026-04-18 18:58 31.74152 -84.51323 2813 ft 223 kts 84°
2026-04-18 18:58 31.74364 -84.49521 2660 ft 225 kts 84°
2026-04-18 18:58 31.74563 -84.47706 2576 ft 224 kts 85°
2026-04-18 18:59 31.74743 -84.45901 2451 ft 224 kts 85°
2026-04-18 18:59 31.74928 -84.44088 2269 ft 222 kts 85°
2026-04-18 18:59 31.75112 -84.42327 2161 ft 221 kts 85°
2026-04-18 18:59 31.75273 -84.40533 2109 ft 221 kts 88°
2026-04-18 19:00 31.75036 -84.38757 1986 ft 217 kts 115°
2026-04-18 19:00 31.74423 -84.37225 1985 ft 201 kts 120°
2026-04-18 19:00 31.73839 -84.35770 1978 ft 194 kts 118°
2026-04-18 19:00 31.73272 -84.34335 1979 ft 192 kts 117°
2026-04-18 19:01 31.72702 -84.32908 1989 ft 194 kts 119°
2026-04-18 19:01 31.72140 -84.31478 2022 ft 195 kts 117°
2026-04-18 19:01 31.71573 -84.30038 1942 ft 194 kts 118°
2026-04-18 19:01 31.70907 -84.28680 1977 ft 190 kts 139°
2026-04-18 19:02 31.69828 -84.27939 1986 ft 177 kts 160°
2026-04-18 19:02 31.68803 -84.27212 2013 ft 174 kts 147°
2026-04-18 19:02 31.67868 -84.26336 1939 ft 167 kts 146°
2026-04-18 19:02 31.66953 -84.25470 1977 ft 171 kts 146°
2026-04-18 19:03 31.66052 -84.24618 2014 ft 167 kts 147°
2026-04-18 19:03 31.65141 -84.23749 1994 ft 166 kts 146°
2026-04-18 19:03 31.64234 -84.22912 1992 ft 168 kts 146°
2026-04-18 19:04 31.62407 -84.21212 1989 ft 172 kts 144°
2026-04-18 19:04 31.61490 -84.20350 1806 ft 165 kts 146°
2026-04-18 19:04 31.60628 -84.19538 1680 ft 153 kts 146°
2026-04-18 19:04 31.59797 -84.18760 1489 ft 152 kts 145°
2026-04-18 19:05 31.58985 -84.18009 1275 ft 145 kts 146°
2026-04-18 19:05 31.57339 -84.16854 991 ft 122 kts 175°
2026-04-18 19:05 31.56532 -84.16844 820 ft 114 kts 198°
2026-04-18 19:06 31.55808 -84.17194 724 ft 110 kts 212°
2026-04-18 19:06 31.54545 -84.18301 329 ft 109 kts 222°
2026-04-18 19:06 31.54030 -84.18845 204 ft 92 kts 223°
2026-04-18 19:07 31.53634 -84.19264 200 ft 59 kts 224°
2026-04-18 19:07 31.53423 -84.19487 196 ft 24 kts 221°
2026-04-18 19:07 31.53361 -84.19515 196 ft 9 kts 163°
2026-04-18 19:07 31.53297 -84.19492 201 ft 10 kts 162°
2026-04-18 19:08 31.53238 -84.19469 205 ft 8 kts 162°
2026-04-18 19:08 31.53195 -84.19453 200 ft 5 kts 162°
2026-04-18 19:08 31.53163 -84.19441 197 ft 6 kts 162°
2026-04-18 19:08 31.53099 -84.19417 199 ft 10 kts 162°
2026-04-18 19:09 31.53065 -84.19404 197 ft 9 kts 162°
2026-04-18 19:09 31.53020 -84.19387 202 ft 7 kts 161°
2026-04-18 19:09 31.52981 -84.19371 203 ft 5 kts 161°
2026-04-18 19:09 31.52949 -84.19338 197 ft 10 kts 92°
2026-04-18 19:10 31.52987 -84.19288 197 ft 8 kts 32°
2026-04-18 19:10 31.53029 -84.19256 197 ft 8 kts 32°
2026-04-18 19:10 31.53093 -84.19208 197 ft 12 kts 32°
2026-04-18 19:10 31.53160 -84.19158 203 ft 11 kts 33°
2026-04-18 19:11 31.53222 -84.19111 197 ft 11 kts 33°
2026-04-18 19:11 31.53306 -84.19046 197 ft 16 kts 33°
2026-04-18 19:11 31.53387 -84.18986 197 ft 11 kts 33°
2026-04-18 19:11 31.53388 -84.18939 197 ft 9 kts 129°
2026-04-18 19:12 31.53341 -84.18870 201 ft 5 kts 127°
2026-04-18 19:12 31.53340 -84.18864 200 ft 1 kts 69°
2026-04-18 19:12 31.53341 -84.18863 197 ft 1 kts 34°
2026-04-18 19:12 31.53342 -84.18862 197 ft 0 kts 33°